Weather in Olsztyn

Poland     53°46′42″N   20°28′47″E
temp.,
°C
wind,
m/s
gust,
m/s
humid.,
%
clouds,
%
prec.,
mm/h
press.,
hPa
HPBL,
m
28 january, thu
thu2801:00−3wsw249719 0.0 101094
04:00−4sw269710 0.0 1009155
07:00−3ssw469648 0.0 1006350
10:00−1s51186100 0.0 1004559
13:00−1s61194100 0.8 1001730
16:000ssw4995100 1.4 999533
19:00−2wsw398897 1.5 997440
22:00−4wsw410900 0.0 996411
29 january, fri
fri2901:00−3wsw5109128 0.1 996759
04:00−2w71488100 0.4 995859
07:00−3wnw379599 0.9 995309
10:00−1wnw599280 0.3 996528
13:000wnw469490 0.6 996507
16:00−3nw249297 0.2 997138
19:00−4nnw129498 0.2 99654
22:00−4w129194 0.0 99747
30 january, sat
sat3001:00−4wnw249197 0.0 996143
04:00−3wnw2394100 0.0 995113
07:00−3wnw1295100 0.1 995109
10:00−2nw2395100 0.2 995216
13:00−1nnw4688100 0.8 995702
16:00−3nw4987100 0.3 996690
19:00−4wnw4108471 0.3 998503
22:00−4wnw4108557 0.0 998471
31 january, sun
sun3101:00−5w4118639 0.0 1000348
04:00−5w49900 0.0 1000314
07:00−6wsw49910 0.0 1001267
10:00−4wsw488633 0.0 1002388
13:00−2wsw478230 0.0 1002537
16:00−4sw38871 0.0 1001366
19:00−5sw39871 0.0 1002298
22:00−6sw38850 0.0 1002233
1 february, mon
mon101:00−6ssw37850 0.0 1001196
04:00−7ssw24890 0.0 100190
07:00−7s23900 0.0 100274
10:00−5s237817 0.0 1002189
13:00−2sw126437 0.0 1003360
16:00−4sw12772 0.0 100322
19:00−6sw22831 0.0 100551
22:00−6wsw24810 0.0 100792